Time,TemperatureF,DewpointF,PressureIn,WindDirection,WindDirectionDegrees,WindSpeedMPH,WindSpeedGustMPH,Humidity,HourlyPrecipIn,Conditions,Clouds,dailyrainin,SoftwareType,DateUTC
2013-04-07 00:25:00,44.8,38.0,30.27,SSW,212,0.0,0.0,78,0.00,,,0.00,weatherlink.com 1.10,2013-04-07 04:25:00,
2013-04-07 00:40:00,44.1,38.0,30.27,SSW,213,0.0,0.0,78,0.00,,,0.00,weatherlink.com 1.10,2013-04-07 04:40:00,
2013-04-07 00:55:00,43.3,38.0,30.27,SSW,212,0.0,0.0,81,0.00,,,0.00,weatherlink.com 1.10,2013-04-07 04:55:00,
2013-04-07 01:10:00,42.7,38.0,30.27,SSW,212,0.0,0.0,83,0.00,,,0.00,weatherlink.com 1.10,2013-04-07 05:10:00,
2013-04-07 01:25:00,42.4,38.0,30.27,SSW,212,0.0,0.0,84,0.00,,,0.00,weatherlink.com 1.10,2013-04-07 05:25:00,
2013-04-07 01:40:00,42.3,38.0,30.27,SSW,213,0.0,0.0,85,0.00,,,0.00,weatherlink.com 1.10,2013-04-07 05:40:00,
2013-04-07 01:55:00,41.2,37.0,30.27,SSW,212,0.0,0.0,86,0.00,,,0.00,weatherlink.com 1.10,2013-04-07 05:55:00,
2013-04-07 04:03:00,42.1,36.0,30.26,WSW,242,0.0,0.0,78,0.00,,,0.00,weatherlink.com 1.10,2013-04-07 08:03:00,
2013-04-07 04:39:00,39.2,35.0,30.26,WSW,242,0.0,0.0,85,0.00,,,0.00,weatherlink.com 1.10,2013-04-07 08:39:00,
2013-04-07 04:55:00,38.7,35.0,30.26,WSW,242,0.0,0.0,86,0.00,,,0.00,weatherlink.com 1.10,2013-04-07 08:55:00,
2013-04-07 05:10:00,38.1,35.0,30.27,WSW,242,0.0,0.0,87,0.00,,,0.00,weatherlink.com 1.10,2013-04-07 09:10:00,
2013-04-07 05:25:00,38.0,35.0,30.26,WSW,242,0.0,0.0,88,0.00,,,0.00,weatherlink.com 1.10,2013-04-07 09:25:00,
2013-04-07 05:40:00,37.5,35.0,30.26,WSW,242,0.0,0.0,89,0.00,,,0.00,weatherlink.com 1.10,2013-04-07 09:40:00,
2013-04-07 05:55:00,36.9,34.0,30.27,WSW,242,0.0,0.0,90,0.00,,,0.00,weatherlink.com 1.10,2013-04-07 09:55:00,
2013-04-07 06:10:00,36.5,34.0,30.27,WSW,242,0.0,0.0,90,0.00,,,0.00,weatherlink.com 1.10,2013-04-07 10:10:00,
2013-04-07 06:26:00,36.0,34.0,30.27,WSW,242,0.0,0.0,92,0.00,,,0.00,weatherlink.com 1.10,2013-04-07 10:26:00,
2013-04-07 06:40:00,36.1,34.0,30.28,WSW,242,0.0,0.0,92,0.00,,,0.00,weatherlink.com 1.10,2013-04-07 10:40:00,
2013-04-07 06:56:00,35.8,34.0,30.28,WSW,242,0.0,0.0,92,0.00,,,0.00,weatherlink.com 1.10,2013-04-07 10:56:00,
2013-04-07 07:11:00,35.9,34.0,30.28,WSW,242,0.0,0.0,92,0.00,,,0.00,weatherlink.com 1.10,2013-04-07 11:11:00,
2013-04-07 07:26:00,36.1,34.0,30.28,WSW,242,0.0,0.0,92,0.00,,,0.00,weatherlink.com 1.10,2013-04-07 11:26:00,
2013-04-07 07:41:00,36.9,34.0,30.28,WSW,239,0.0,1.0,90,0.00,,,0.00,weatherlink.com 1.10,2013-04-07 11:41:00,
2013-04-07 07:56:00,37.3,35.0,30.28,NNE,29,0.0,1.0,91,0.00,,,0.00,weatherlink.com 1.10,2013-04-07 11:56:00,
2013-04-07 08:11:00,38.6,36.0,30.29,NNE,27,0.0,1.0,90,0.00,,,0.00,weatherlink.com 1.10,2013-04-07 12:11:00,
2013-04-07 08:26:00,41.6,37.0,30.29,ENE,76,0.0,1.0,85,0.00,,,0.00,weatherlink.com 1.10,2013-04-07 12:26:00,
2013-04-07 08:41:00,45.1,39.0,30.29,ENE,66,0.0,1.0,80,0.00,,,0.00,weatherlink.com 1.10,2013-04-07 12:41:00,
2013-04-07 08:56:00,48.0,39.0,30.30,ESE,108,0.0,2.0,70,0.00,,,0.00,weatherlink.com 1.10,2013-04-07 12:56:00,
2013-04-07 09:11:00,51.5,40.0,30.30,WNW,295,0.0,1.0,64,0.00,,,0.00,weatherlink.com 1.10,2013-04-07 13:11:00,
2013-04-07 09:26:00,52.7,39.0,30.30,WSW,248,2.0,5.0,59,0.00,,,0.00,weatherlink.com 1.10,2013-04-07 13:26:00,
2013-04-07 09:41:00,53.7,39.0,30.30,WNW,298,2.0,4.0,57,0.00,,,0.00,weatherlink.com 1.10,2013-04-07 13:41:00,
2013-04-07 09:56:00,54.7,36.0,30.30,WNW,283,2.0,7.0,50,0.00,,,0.00,weatherlink.com 1.10,2013-04-07 13:56:00,
2013-04-07 10:11:00,56.2,38.0,30.30,West,276,3.0,6.0,50,0.00,,,0.00,weatherlink.com 1.10,2013-04-07 14:11:00,
2013-04-07 10:56:00,59.8,38.0,30.30,WSW,254,7.0,11.0,45,0.00,,,0.00,weatherlink.com 1.10,2013-04-07 14:56:00,
2013-04-07 11:11:00,60.0,39.0,30.30,West,271,2.0,10.0,47,0.00,,,0.00,weatherlink.com 1.10,2013-04-07 15:11:00,
2013-04-07 11:26:00,61.4,40.0,30.30,NW,319,2.0,8.0,46,0.00,,,0.00,weatherlink.com 1.10,2013-04-07 15:26:00,
2013-04-07 11:41:00,61.7,41.0,30.30,West,278,4.0,11.0,46,0.00,,,0.00,weatherlink.com 1.10,2013-04-07 15:41:00,
2013-04-07 11:56:00,62.2,42.0,30.29,NW,323,3.0,11.0,48,0.00,,,0.00,weatherlink.com 1.10,2013-04-07 15:56:00,
2013-04-07 12:11:00,63.0,42.0,30.29,North,352,2.0,12.0,46,0.00,,,0.00,weatherlink.com 1.10,2013-04-07 16:11:00,
2013-04-07 12:27:00,63.5,42.0,30.29,West,281,2.0,10.0,46,0.00,,,0.00,weatherlink.com 1.10,2013-04-07 16:27:00,
2013-04-07 12:41:00,63.4,42.0,30.28,WSW,257,4.0,10.0,45,0.00,,,0.00,weatherlink.com 1.10,2013-04-07 16:41:00,
2013-04-07 12:56:00,63.6,42.0,30.28,North,359,4.0,6.0,46,0.00,,,0.00,weatherlink.com 1.10,2013-04-07 16:56:00,
2013-04-07 13:12:00,64.9,43.0,30.27,WSW,241,2.0,10.0,45,0.00,,,0.00,weatherlink.com 1.10,2013-04-07 17:12:00,
2013-04-07 13:27:00,64.9,42.0,30.26,West,277,5.0,13.0,43,0.00,,,0.00,weatherlink.com 1.10,2013-04-07 17:27:00,
2013-04-07 13:42:00,65.8,43.0,30.25,WNW,283,4.0,12.0,44,0.00,,,0.00,weatherlink.com 1.10,2013-04-07 17:42:00,
2013-04-07 13:57:00,65.6,43.0,30.24,WNW,299,6.0,12.0,44,0.00,,,0.00,weatherlink.com 1.10,2013-04-07 17:57:00,
2013-04-07 14:12:00,66.5,44.0,30.24,WNW,287,3.0,10.0,45,0.00,,,0.00,weatherlink.com 1.10,2013-04-07 18:12:00,
2013-04-07 14:27:00,66.6,44.0,30.23,NNW,330,4.0,10.0,44,0.00,,,0.00,weatherlink.com 1.10,2013-04-07 18:27:00,
2013-04-07 14:42:00,66.2,44.0,30.23,SW,228,5.0,9.0,45,0.00,,,0.00,weatherlink.com 1.10,2013-04-07 18:42:00,
2013-04-07 14:57:00,66.2,43.0,30.23,NW,323,3.0,12.0,44,0.00,,,0.00,weatherlink.com 1.10,2013-04-07 18:57:00,
2013-04-07 15:12:00,66.2,45.0,30.22,WSW,245,3.0,9.0,46,0.00,,,0.00,weatherlink.com 1.10,2013-04-07 19:12:00,
2013-04-07 15:27:00,66.4,44.0,30.22,WNW,288,4.0,8.0,45,0.00,,,0.00,weatherlink.com 1.10,2013-04-07 19:27:00,
2013-04-07 15:42:00,66.4,44.0,30.22,NW,304,5.0,10.0,44,0.00,,,0.00,weatherlink.com 1.10,2013-04-07 19:42:00,
2013-04-07 15:57:00,66.5,44.0,30.21,WNW,291,2.0,6.0,44,0.00,,,0.00,weatherlink.com 1.10,2013-04-07 19:57:00,
2013-04-07 16:12:00,65.9,44.0,30.21,WNW,285,2.0,12.0,45,0.00,,,0.00,weatherlink.com 1.10,2013-04-07 20:12:00,
2013-04-07 16:27:00,65.8,45.0,30.21,NNW,328,4.0,8.0,47,0.00,,,0.00,weatherlink.com 1.10,2013-04-07 20:27:00,
2013-04-07 16:42:00,65.3,44.0,30.21,WNW,302,3.0,6.0,47,0.00,,,0.00,weatherlink.com 1.10,2013-04-07 20:42:00,
2013-04-07 17:12:00,65.9,44.0,30.21,West,276,4.0,6.0,46,0.00,,,0.00,weatherlink.com 1.10,2013-04-07 21:12:00,
2013-04-07 17:27:00,65.6,44.0,30.20,WNW,290,2.0,9.0,46,0.00,,,0.00,weatherlink.com 1.10,2013-04-07 21:27:00,
2013-04-07 17:42:00,65.9,44.0,30.20,SSE,153,2.0,10.0,46,0.00,,,0.00,weatherlink.com 1.10,2013-04-07 21:42:00,
2013-04-07 18:12:00,65.7,44.0,30.21,WNW,296,4.0,12.0,46,0.00,,,0.00,weatherlink.com 1.10,2013-04-07 22:12:00,
2013-04-07 18:27:00,65.2,44.0,30.20,NW,304,2.0,6.0,47,0.00,,,0.00,weatherlink.com 1.10,2013-04-07 22:27:00,
2013-04-07 18:42:00,64.3,44.0,30.20,WNW,285,3.0,10.0,48,0.00,,,0.00,weatherlink.com 1.10,2013-04-07 22:42:00,
2013-04-07 18:57:00,63.3,44.0,30.21,West,263,3.0,8.0,49,0.00,,,0.00,weatherlink.com 1.10,2013-04-07 22:57:00,
2013-04-07 19:12:00,63.4,44.0,30.22,WNW,285,3.0,7.0,49,0.00,,,0.00,weatherlink.com 1.10,2013-04-07 23:12:00,
2013-04-07 19:27:00,62.9,43.0,30.21,NW,312,2.0,4.0,49,0.00,,,0.00,weatherlink.com 1.10,2013-04-07 23:27:00,
2013-04-07 19:42:00,62.1,44.0,30.21,WSW,257,1.0,3.0,51,0.00,,,0.00,weatherlink.com 1.10,2013-04-07 23:42:00,
2013-04-07 19:57:00,61.3,43.0,30.22,WNW,291,0.0,4.0,52,0.00,,,0.00,weatherlink.com 1.10,2013-04-07 23:57:00,
2013-04-07 20:12:00,60.3,43.0,30.22,WNW,284,0.0,0.0,54,0.00,,,0.00,weatherlink.com 1.10,2013-04-08 00:12:00,
2013-04-07 20:27:00,58.9,44.0,30.23,WNW,283,0.0,0.0,58,0.00,,,0.00,weatherlink.com 1.10,2013-04-08 00:27:00,
2013-04-07 20:42:00,57.6,44.0,30.22,WNW,290,0.0,0.0,61,0.00,,,0.00,weatherlink.com 1.10,2013-04-08 00:42:00,
2013-04-07 20:57:00,56.9,45.0,30.23,WNW,289,0.0,1.0,64,0.00,,,0.00,weatherlink.com 1.10,2013-04-08 00:57:00,
2013-04-07 21:12:00,55.5,45.0,30.23,WNW,289,0.0,0.0,67,0.00,,,0.00,weatherlink.com 1.10,2013-04-08 01:12:00,
2013-04-07 21:27:00,54.1,45.0,30.24,WNW,290,0.0,0.0,71,0.00,,,0.00,weatherlink.com 1.10,2013-04-08 01:27:00,
2013-04-07 21:42:00,53.1,45.0,30.24,NW,307,0.0,1.0,73,0.00,,,0.00,weatherlink.com 1.10,2013-04-08 01:42:00,
2013-04-07 21:57:00,52.3,45.0,30.24,WNW,295,0.0,1.0,76,0.00,,,0.00,weatherlink.com 1.10,2013-04-08 01:57:00,
2013-04-07 22:12:00,51.3,45.0,30.24,WNW,287,0.0,1.0,78,0.00,,,0.00,weatherlink.com 1.10,2013-04-08 02:12:00,
2013-04-07 22:27:00,50.9,45.0,30.23,SW,235,0.0,1.0,80,0.00,,,0.00,weatherlink.com 1.10,2013-04-08 02:27:00,
2013-04-07 22:42:00,50.5,44.0,30.24,SW,234,0.0,0.0,79,0.00,,,0.00,weatherlink.com 1.10,2013-04-08 02:42:00,
2013-04-07 22:57:00,50.1,45.0,30.23,SW,235,0.0,0.0,81,0.00,,,0.00,weatherlink.com 1.10,2013-04-08 02:57:00,
2013-04-07 23:12:00,49.5,44.0,30.23,SW,235,0.0,0.0,82,0.00,,,0.00,weatherlink.com 1.10,2013-04-08 03:12:00,
2013-04-07 23:27:00,49.1,44.0,30.23,SW,234,0.0,0.0,82,0.00,,,0.00,weatherlink.com 1.10,2013-04-08 03:27:00,
2013-04-07 23:42:00,48.4,44.0,30.22,SW,235,0.0,0.0,84,0.00,,,0.00,weatherlink.com 1.10,2013-04-08 03:42:00,
2013-04-07 23:57:00,48.3,44.0,30.22,SW,235,0.0,0.0,84,0.00,,,0.00,weatherlink.com 1.10,2013-04-08 03:57:00,